,,,PA_Meas_PMT16A,,PR_Meas_QMR101_102,,RH_Meas_QMH101,,SR_Meas_QMS101,,TA_Meas_QMH101,,GenWind,,GenWind,
date,time,status,PA,status,PR,status,RH,status,SR,status,TA,status,DirAvg,status,SpdAvg,
2014-04-10, 00:00:04,VALID,1010.82,VALID,0,INVALID,111.489,VALID,0,VALID,23.2441,VALID,337,VALID,0,
2014-04-10, 00:01:04,VALID,1010.82,VALID,0,INVALID,111.496,VALID,0,VALID,23.2654,VALID,337,VALID,0,
2014-04-10, 00:02:04,VALID,1010.82,VALID,0,INVALID,111.534,VALID,0,VALID,23.2246,VALID,337,VALID,0,
2014-04-10, 00:03:04,VALID,1010.81,VALID,0,INVALID,111.527,VALID,0,VALID,23.2264,VALID,337,VALID,0,
2014-04-10, 00:04:04,VALID,1010.81,VALID,0,INVALID,111.504,VALID,0,VALID,23.2459,VALID,337,VALID,0,
2014-04-10, 00:05:04,VALID,1010.81,VALID,0,INVALID,111.542,VALID,0,VALID,23.2264,VALID,337,VALID,0,
2014-04-10, 00:06:04,VALID,1010.79,VALID,0,INVALID,111.519,VALID,0,VALID,23.2264,VALID,337,VALID,0,
2014-04-10, 00:07:04,VALID,1010.75,VALID,0,INVALID,111.527,VALID,0,VALID,23.2264,VALID,337,VALID,0,
2014-04-10, 00:08:04,VALID,1010.72,VALID,0,INVALID,111.542,VALID,0,VALID,23.2264,VALID,337,VALID,0,
2014-04-10, 00:09:04,VALID,1010.7,VALID,0,INVALID,111.534,VALID,0,VALID,23.1857,VALID,337,VALID,0,
2014-04-10, 00:10:04,VALID,1010.7,VALID,0,INVALID,111.527,VALID,0,VALID,23.2069,VALID,337,VALID,0,
2014-04-10, 00:11:04,VALID,1010.68,VALID,0,INVALID,111.55,VALID,0,VALID,23.1874,VALID,337,VALID,0,
2014-04-10, 00:12:04,VALID,1010.66,VALID,0,INVALID,111.58,VALID,0,VALID,23.1679,VALID,337,VALID,0,
2014-04-10, 00:13:04,VALID,1010.64,VALID,0,INVALID,111.55,VALID,0.112112,VALID,23.1662,VALID,337,VALID,0,
2014-04-10, 00:14:04,VALID,1010.59,VALID,0,INVALID,111.557,VALID,0,VALID,23.1679,VALID,337,VALID,0,
2014-04-10, 00:15:04,VALID,1010.54,VALID,0,INVALID,111.534,VALID,0,VALID,23.1679,VALID,337,VALID,0,
2014-04-10, 00:16:04,VALID,1010.53,VALID,0,INVALID,111.557,VALID,0,VALID,23.1467,VALID,337,VALID,0,
2014-04-10, 00:17:04,VALID,1010.48,VALID,0,INVALID,111.534,VALID,0,VALID,23.1662,VALID,337,VALID,0,
2014-04-10, 00:18:04,VALID,1010.53,VALID,0,INVALID,111.519,VALID,0,VALID,23.1485,VALID,337,VALID,0,
2014-04-10, 00:19:04,VALID,1010.51,VALID,0,INVALID,111.519,VALID,0,VALID,23.1077,VALID,337,VALID,0,
2014-04-10, 00:20:04,VALID,1010.48,VALID,0,INVALID,111.527,VALID,0,VALID,23.1077,VALID,337,VALID,0,
2014-04-10, 00:21:04,VALID,1010.5,VALID,0,INVALID,111.519,VALID,0,VALID,23.1095,VALID,337,VALID,0,
2014-04-10, 00:22:04,VALID,1010.49,VALID,0,INVALID,111.504,VALID,0,VALID,23.0883,VALID,337,VALID,0,
2014-04-10, 00:23:04,VALID,1010.51,VALID,0,INVALID,111.511,VALID,0,VALID,23.09,VALID,337,VALID,0,
2014-04-10, 00:24:04,VALID,1010.52,VALID,0,INVALID,111.55,VALID,0,VALID,23.0883,VALID,337,VALID,0,
2014-04-10, 00:25:04,VALID,1010.53,VALID,0,INVALID,111.519,VALID,0,VALID,23.0883,VALID,337,VALID,0,
2014-04-10, 00:26:04,VALID,1010.52,VALID,0,INVALID,111.42,VALID,0,VALID,23.1679,VALID,337,VALID,0,
2014-04-10, 00:27:04,VALID,1010.52,VALID,0,INVALID,111.428,VALID,0,VALID,23.1662,VALID,337,VALID,0,
2014-04-10, 00:28:04,VALID,1010.49,VALID,0,INVALID,111.45,VALID,0.112112,VALID,23.1874,VALID,337,VALID,0,
2014-04-10, 00:29:04,VALID,1010.48,VALID,0,INVALID,111.458,VALID,0,VALID,23.1857,VALID,337,VALID,0,
2014-04-10, 00:30:04,VALID,1010.45,VALID,0,INVALID,111.412,VALID,0,VALID,23.1857,VALID,337,VALID,0,
2014-04-10, 00:31:04,VALID,1010.42,VALID,0,INVALID,111.42,VALID,0,VALID,23.1857,VALID,337,VALID,0,
2014-04-10, 00:32:04,VALID,1010.41,VALID,0,INVALID,111.466,VALID,0.112112,VALID,23.1662,VALID,337,VALID,0,
2014-04-10, 00:33:04,VALID,1010.41,VALID,0,INVALID,111.55,VALID,0,VALID,23.1679,VALID,337,VALID,0,
2014-04-10, 00:34:04,VALID,1010.44,VALID,0,INVALID,111.504,VALID,0,VALID,23.1272,VALID,337,VALID,0,
2014-04-10, 00:35:04,VALID,1010.44,VALID,0,INVALID,111.519,VALID,0.112112,VALID,23.1272,VALID,337,VALID,0,
2014-04-10, 00:36:04,VALID,1010.43,VALID,0,INVALID,111.527,VALID,0,VALID,23.1272,VALID,337,VALID,0,
2014-04-10, 00:37:04,VALID,1010.45,VALID,0,INVALID,111.519,VALID,0,VALID,23.129,VALID,337,VALID,0,
2014-04-10, 00:38:04,VALID,1010.43,VALID,0,INVALID,111.572,VALID,0,VALID,23.129,VALID,337,VALID,0,
2014-04-10, 00:39:04,VALID,1010.41,VALID,0,INVALID,111.572,VALID,0,VALID,23.1095,VALID,337,VALID,0,
2014-04-10, 00:40:04,VALID,1010.4,VALID,0,INVALID,111.588,VALID,0,VALID,23.0688,VALID,337,VALID,0,
2014-04-10, 00:41:04,VALID,1010.44,VALID,0,INVALID,111.626,VALID,0,VALID,23.0705,VALID,337,VALID,0,
2014-04-10, 00:42:04,VALID,1010.43,VALID,0,INVALID,111.572,VALID,0,VALID,23.0511,VALID,337,VALID,0,
2014-04-10, 00:43:04,VALID,1010.46,VALID,0,INVALID,111.611,VALID,0,VALID,23.0316,VALID,337,VALID,0,
2014-04-10, 00:44:04,VALID,1010.45,VALID,0,INVALID,111.572,VALID,0,VALID,23.0316,VALID,337,VALID,0,
2014-04-10, 00:45:04,VALID,1010.43,VALID,0,INVALID,111.55,VALID,0,VALID,23.0705,VALID,337,VALID,0,
2014-04-10, 00:46:04,VALID,1010.43,VALID,0,INVALID,111.534,VALID,0,VALID,23.0705,VALID,337,VALID,0,
2014-04-10, 00:47:04,VALID,1010.41,VALID,0,INVALID,111.504,VALID,0,VALID,23.0705,VALID,337,VALID,0,
2014-04-10, 00:48:04,VALID,1010.42,VALID,0,INVALID,111.504,VALID,0,VALID,23.0705,VALID,337,VALID,0,
2014-04-10, 00:49:04,VALID,1010.4,VALID,0,INVALID,111.542,VALID,0,VALID,23.0493,VALID,337,VALID,0,
2014-04-10, 00:50:04,VALID,1010.38,VALID,0,INVALID,111.534,VALID,0,VALID,23.0705,VALID,337,VALID,0,
2014-04-10, 00:51:04,VALID,1010.38,VALID,0,INVALID,111.557,VALID,0,VALID,23.0705,VALID,337,VALID,0,
2014-04-10, 00:52:04,VALID,1010.36,VALID,0,INVALID,111.511,VALID,0,VALID,23.0511,VALID,337,VALID,0,
2014-04-10, 00:53:04,VALID,1010.37,VALID,0,INVALID,111.527,VALID,0,VALID,23.0511,VALID,337,VALID,0,
2014-04-10, 00:54:04,VALID,1010.37,VALID,0,INVALID,111.519,VALID,0,VALID,23.0511,VALID,337,VALID,0,
2014-04-10, 00:55:04,VALID,1010.38,VALID,0,INVALID,111.527,VALID,0,VALID,23.0511,VALID,337,VALID,0,
2014-04-10, 00:56:04,VALID,1010.38,VALID,0,INVALID,111.504,VALID,0,VALID,23.0316,VALID,337,VALID,0,
2014-04-10, 00:57:04,VALID,1010.35,VALID,0,INVALID,111.527,VALID,0,VALID,23.0316,VALID,337,VALID,0,
2014-04-10, 00:58:04,VALID,1010.35,VALID,0,INVALID,111.534,VALID,0,VALID,23.0121,VALID,337,VALID,0,
2014-04-10, 00:59:04,VALID,1010.32,VALID,0,INVALID,111.542,VALID,0.112112,VALID,23.0121,VALID,337,VALID,0,
2014-04-10, 01:00:04,VALID,1010.27,VALID,0,INVALID,111.527,VALID,0,VALID,22.9926,VALID,337,VALID,0,
2014-04-10, 01:01:04,VALID,1010.23,VALID,0,INVALID,111.496,VALID,0,VALID,22.9926,VALID,337,VALID,0,
2014-04-10, 01:02:04,VALID,1010.21,VALID,0,INVALID,111.572,VALID,0,VALID,22.9324,VALID,337,VALID,0,
2014-04-10, 01:03:04,VALID,1010.15,VALID,0,INVALID,111.55,VALID,0,VALID,22.9129,VALID,337,VALID,0,
2014-04-10, 01:04:04,VALID,1010.15,VALID,0,INVALID,111.481,VALID,0,VALID,22.9536,VALID,337,VALID,0,
2014-04-10, 01:05:04,VALID,1010.09,VALID,0,INVALID,111.527,VALID,0,VALID,22.9342,VALID,337,VALID,0,
2014-04-10, 01:06:04,VALID,1010.11,VALID,0,INVALID,111.496,VALID,0,VALID,22.9536,VALID,337,VALID,0,
2014-04-10, 01:07:04,VALID,1010.08,VALID,0,INVALID,111.458,VALID,0,VALID,22.9731,VALID,337,VALID,0,
2014-04-10, 01:08:04,VALID,1010.07,VALID,0,INVALID,111.435,VALID,0,VALID,22.9714,VALID,337,VALID,0,
2014-04-10, 01:09:04,VALID,1010.05,VALID,0,INVALID,111.443,VALID,0,VALID,22.9926,VALID,337,VALID,0,
2014-04-10, 01:10:04,VALID,1010.01,VALID,0,INVALID,111.481,VALID,0,VALID,22.9731,VALID,337,VALID,0,
2014-04-10, 01:11:04,VALID,1010,VALID,0,INVALID,111.458,VALID,0,VALID,22.9519,VALID,337,VALID,0,
2014-04-10, 01:12:04,VALID,1009.99,VALID,0,INVALID,111.45,VALID,0,VALID,22.9536,VALID,337,VALID,0,
2014-04-10, 01:13:04,VALID,1009.93,VALID,0,INVALID,111.45,VALID,0,VALID,22.9342,VALID,337,VALID,0,
2014-04-10, 01:14:04,VALID,1009.93,VALID,0,INVALID,111.519,VALID,0,VALID,22.9147,VALID,337,VALID,0,
2014-04-10, 01:15:04,VALID,1009.9,VALID,0,INVALID,111.527,VALID,0,VALID,22.8952,VALID,337,VALID,0,
2014-04-10, 01:16:04,VALID,1009.91,VALID,0,INVALID,111.534,VALID,0,VALID,22.8952,VALID,337,VALID,0,
2014-04-10, 01:17:04,VALID,1009.9,VALID,0,INVALID,111.435,VALID,0,VALID,22.8952,VALID,337,VALID,0,
2014-04-10, 01:18:04,VALID,1009.9,VALID,0,INVALID,111.489,VALID,0,VALID,22.9147,VALID,337,VALID,0,
2014-04-10, 01:19:04,VALID,1009.85,VALID,0,INVALID,111.45,VALID,0,VALID,22.9536,VALID,337,VALID,0,
2014-04-10, 01:20:04,VALID,1009.84,VALID,0,INVALID,111.405,VALID,0,VALID,22.9519,VALID,337,VALID,0,
2014-04-10, 01:21:04,VALID,1009.78,VALID,0,INVALID,111.435,VALID,0,VALID,22.9731,VALID,337,VALID,0,
2014-04-10, 01:22:04,VALID,1009.75,VALID,0,INVALID,111.45,VALID,0,VALID,22.9324,VALID,337,VALID,0,
2014-04-10, 01:23:04,VALID,1009.76,VALID,0,INVALID,111.466,VALID,0,VALID,22.9147,VALID,337,VALID,0,
2014-04-10, 01:24:04,VALID,1009.74,VALID,0,INVALID,111.496,VALID,0,VALID,22.874,VALID,337,VALID,0,
2014-04-10, 01:25:04,VALID,1009.72,VALID,0,INVALID,111.45,VALID,0,VALID,22.8757,VALID,337,VALID,0,
2014-04-10, 01:26:04,VALID,1009.69,VALID,0,INVALID,111.504,VALID,0,VALID,22.8545,VALID,337,VALID,0,
2014-04-10, 01:27:04,VALID,1009.65,VALID,0,INVALID,111.466,VALID,0,VALID,22.8757,VALID,337,VALID,0,
2014-04-10, 01:28:04,VALID,1009.62,VALID,0,INVALID,111.45,VALID,0,VALID,22.835,VALID,337,VALID,0,
2014-04-10, 01:29:04,VALID,1009.6,VALID,0,INVALID,111.458,VALID,0,VALID,22.8368,VALID,337,VALID,0,
2014-04-10, 01:30:04,VALID,1009.58,VALID,0,INVALID,111.496,VALID,0,VALID,22.7978,VALID,337,VALID,0,
2014-04-10, 01:31:04,VALID,1009.6,VALID,0,INVALID,111.519,VALID,0,VALID,22.7783,VALID,337,VALID,0,
2014-04-10, 01:32:04,VALID,1009.6,VALID,0,INVALID,111.519,VALID,0,VALID,22.7588,VALID,337,VALID,0,
2014-04-10, 01:33:04,VALID,1009.64,VALID,0,INVALID,111.458,VALID,0,VALID,22.7783,VALID,337,VALID,0,
2014-04-10, 01:34:04,VALID,1009.64,VALID,0,INVALID,111.489,VALID,0,VALID,22.7783,VALID,337,VALID,0,
2014-04-10, 01:35:04,VALID,1009.66,VALID,0,INVALID,111.473,VALID,0,VALID,22.7376,VALID,337,VALID,0,
2014-04-10, 01:36:04,VALID,1009.66,VALID,0,INVALID,111.45,VALID,0,VALID,22.7588,VALID,337,VALID,0,
2014-04-10, 01:37:04,VALID,1009.68,VALID,0,INVALID,111.443,VALID,0,VALID,22.7588,VALID,337,VALID,0,
2014-04-10, 01:38:04,VALID,1009.67,VALID,0,INVALID,111.374,VALID,0,VALID,22.7571,VALID,337,VALID,0,
2014-04-10, 01:39:04,VALID,1009.64,VALID,0,INVALID,111.367,VALID,0,VALID,22.8173,VALID,337,VALID,0,
2014-04-10, 01:40:04,VALID,1009.61,VALID,0,INVALID,111.344,VALID,0,VALID,22.8368,VALID,337,VALID,0,
2014-04-10, 01:41:04,VALID,1009.6,VALID,0,INVALID,111.359,VALID,0,VALID,22.8173,VALID,337,VALID,0,
2014-04-10, 01:42:04,VALID,1009.56,VALID,0,INVALID,111.374,VALID,0,VALID,22.8173,VALID,337,VALID,0,
2014-04-10, 01:43:04,VALID,1009.52,VALID,0,INVALID,111.351,VALID,0,VALID,22.8173,VALID,337,VALID,0,
2014-04-10, 01:44:04,VALID,1009.52,VALID,0,INVALID,111.351,VALID,0,VALID,22.8173,VALID,337,VALID,0,
2014-04-10, 01:45:04,VALID,1009.51,VALID,0,INVALID,111.367,VALID,0,VALID,22.7961,VALID,337,VALID,0,
2014-04-10, 01:46:04,VALID,1009.52,VALID,0,INVALID,111.374,VALID,0,VALID,22.7978,VALID,337,VALID,0,
2014-04-10, 01:47:04,VALID,1009.51,VALID,0,INVALID,111.382,VALID,0,VALID,22.7783,VALID,337,VALID,0,
2014-04-10, 01:48:04,VALID,1009.49,VALID,0,INVALID,111.405,VALID,0,VALID,22.7588,VALID,336,VALID,0,
2014-04-10, 01:49:04,VALID,1009.46,VALID,0,INVALID,111.412,VALID,0,VALID,22.7394,VALID,337,VALID,0,
2014-04-10, 01:50:04,VALID,1009.46,VALID,0,INVALID,111.405,VALID,0,VALID,22.7394,VALID,337,VALID,0,
2014-04-10, 01:51:04,VALID,1009.43,VALID,0,INVALID,111.397,VALID,0.112112,VALID,22.6987,VALID,336,VALID,0,
2014-04-10, 01:52:04,VALID,1009.42,VALID,0,INVALID,111.42,VALID,0,VALID,22.7004,VALID,337,VALID,0,
2014-04-10, 01:53:04,VALID,1009.4,VALID,0,INVALID,111.397,VALID,0,VALID,22.6597,VALID,337,VALID,0,
2014-04-10, 01:54:04,VALID,1009.41,VALID,0,INVALID,111.367,VALID,0.112112,VALID,22.7004,VALID,337,VALID,0,
2014-04-10, 01:55:04,VALID,1009.41,VALID,0,INVALID,111.336,VALID,0,VALID,22.6792,VALID,337,VALID,0,
2014-04-10, 01:56:04,VALID,1009.39,VALID,0,INVALID,111.351,VALID,0,VALID,22.7004,VALID,337,VALID,0,
2014-04-10, 01:57:04,VALID,1009.4,VALID,0,INVALID,111.344,VALID,0,VALID,22.7199,VALID,337,VALID,0,
2014-04-10, 01:58:04,VALID,1009.37,VALID,0,INVALID,111.336,VALID,0,VALID,22.6792,VALID,337,VALID,0,
2014-04-10, 01:59:04,VALID,1009.37,VALID,0,INVALID,111.42,VALID,0,VALID,22.6809,VALID,337,VALID,0,
2014-04-10, 02:00:04,VALID,1009.37,VALID,0,INVALID,111.389,VALID,0,VALID,22.6614,VALID,337,VALID,0,
2014-04-10, 02:01:04,VALID,1009.36,VALID,0,INVALID,111.367,VALID,0,VALID,22.6614,VALID,337,VALID,0,
2014-04-10, 02:02:04,VALID,1009.33,VALID,0,INVALID,111.359,VALID,0,VALID,22.642,VALID,337,VALID,0,
2014-04-10, 02:03:04,VALID,1009.28,VALID,0,INVALID,111.336,VALID,0,VALID,22.6614,VALID,337,VALID,0,
2014-04-10, 02:04:04,VALID,1009.29,VALID,0,INVALID,111.26,VALID,0,VALID,22.7004,VALID,337,VALID,0,
2014-04-10, 02:05:04,VALID,1009.27,VALID,0,INVALID,111.252,VALID,0,VALID,22.7004,VALID,337,VALID,0,
2014-04-10, 02:06:04,VALID,1009.32,VALID,0,INVALID,111.267,VALID,0,VALID,22.6987,VALID,337,VALID,0,
2014-04-10, 02:07:04,VALID,1009.33,VALID,0,INVALID,111.29,VALID,0,VALID,22.7004,VALID,337,VALID,0,
2014-04-10, 02:08:04,VALID,1009.33,VALID,0,INVALID,111.237,VALID,0,VALID,22.6792,VALID,337,VALID,0,
2014-04-10, 02:09:04,VALID,1009.34,VALID,0,INVALID,111.237,VALID,0,VALID,22.7004,VALID,337,VALID,0,
2014-04-10, 02:10:04,VALID,1009.34,VALID,0,INVALID,111.29,VALID,0,VALID,22.6809,VALID,337,VALID,0,
2014-04-10, 02:11:04,VALID,1009.31,VALID,0,INVALID,111.191,VALID,0.112112,VALID,22.7199,VALID,337,VALID,0,
2014-04-10, 02:12:04,VALID,1009.29,VALID,0,INVALID,111.252,VALID,0,VALID,22.7004,VALID,337,VALID,0,
2014-04-10, 02:13:04,VALID,1009.29,VALID,0,INVALID,111.252,VALID,0,VALID,22.7004,VALID,337,VALID,0,
2014-04-10, 02:14:04,VALID,1009.3,VALID,0,INVALID,111.237,VALID,0,VALID,22.6614,VALID,337,VALID,0,
2014-04-10, 02:15:04,VALID,1009.28,VALID,0,INVALID,111.336,VALID,0,VALID,22.6013,VALID,337,VALID,0,
2014-04-10, 02:16:04,VALID,1009.28,VALID,0,INVALID,111.321,VALID,0,VALID,22.6225,VALID,337,VALID,0,
2014-04-10, 02:17:04,VALID,1009.28,VALID,0,INVALID,111.336,VALID,0,VALID,22.5835,VALID,337,VALID,0,
2014-04-10, 02:18:04,VALID,1009.3,VALID,0,INVALID,111.351,VALID,0,VALID,22.564,VALID,337,VALID,0,
2014-04-10, 02:19:04,VALID,1009.32,VALID,0,INVALID,111.359,VALID,0,VALID,22.564,VALID,337,VALID,0,
2014-04-10, 02:20:04,VALID,1009.3,VALID,0,INVALID,111.344,VALID,0,VALID,22.5234,VALID,337,VALID,0,
2014-04-10, 02:21:04,VALID,1009.31,VALID,0,INVALID,111.328,VALID,0,VALID,22.5234,VALID,337,VALID,0,
2014-04-10, 02:22:04,VALID,1009.27,VALID,0,INVALID,111.359,VALID,0,VALID,22.5446,VALID,337,VALID,0,
2014-04-10, 02:23:04,VALID,1009.24,VALID,0,INVALID,111.305,VALID,0,VALID,22.564,VALID,337,VALID,0,
2014-04-10, 02:24:04,VALID,1009.24,VALID,0,INVALID,111.29,VALID,0,VALID,22.5835,VALID,337,VALID,0,
2014-04-10, 02:25:04,VALID,1009.22,VALID,0,INVALID,111.26,VALID,0,VALID,22.5623,VALID,337,VALID,0,
2014-04-10, 02:26:04,VALID,1009.22,VALID,0,INVALID,111.321,VALID,0,VALID,22.564,VALID,337,VALID,0,
2014-04-10, 02:27:04,VALID,1009.22,VALID,0,INVALID,111.382,VALID,0,VALID,22.5251,VALID,337,VALID,0,
2014-04-10, 02:28:04,VALID,1009.22,VALID,0,INVALID,111.313,VALID,0,VALID,22.5039,VALID,337,VALID,0,
2014-04-10, 02:29:04,VALID,1009.18,VALID,0,INVALID,111.275,VALID,0,VALID,22.5446,VALID,337,VALID,0,
2014-04-10, 02:30:04,VALID,1009.17,VALID,0,INVALID,111.267,VALID,0,VALID,22.564,VALID,337,VALID,0,
2014-04-10, 02:31:04,VALID,1009.13,VALID,0,INVALID,111.222,VALID,0,VALID,22.5835,VALID,337,VALID,0,
2014-04-10, 02:32:04,VALID,1009.14,VALID,0,INVALID,111.267,VALID,0,VALID,22.564,VALID,337,VALID,0,
2014-04-10, 02:33:04,VALID,1009.12,VALID,0,INVALID,111.29,VALID,0,VALID,22.564,VALID,337,VALID,0,
2014-04-10, 02:34:04,VALID,1009.1,VALID,0,INVALID,111.267,VALID,0,VALID,22.5446,VALID,337,VALID,0,
2014-04-10, 02:35:04,VALID,1009.07,VALID,0,INVALID,111.229,VALID,0,VALID,22.5251,VALID,337,VALID,0,
2014-04-10, 02:36:04,VALID,1009.05,VALID,0,INVALID,111.214,VALID,0,VALID,22.5251,VALID,337,VALID,0,
2014-04-10, 02:37:04,VALID,1009.03,VALID,0,INVALID,111.244,VALID,0.112112,VALID,22.5234,VALID,337,VALID,0,
2014-04-10, 02:38:04,VALID,1008.98,VALID,0,INVALID,111.252,VALID,0.112112,VALID,22.5251,VALID,337,VALID,0,
2014-04-10, 02:39:04,VALID,1008.99,VALID,0,INVALID,111.26,VALID,0.112112,VALID,22.4844,VALID,337,VALID,0,
2014-04-10, 02:40:04,VALID,1009.01,VALID,0,INVALID,111.26,VALID,0,VALID,22.4667,VALID,337,VALID,0,
2014-04-10, 02:41:04,VALID,1008.97,VALID,0,INVALID,111.237,VALID,0,VALID,22.4667,VALID,337,VALID,0,
2014-04-10, 02:42:04,VALID,1008.98,VALID,0,INVALID,111.191,VALID,0,VALID,22.5039,VALID,337,VALID,0,
2014-04-10, 02:43:04,VALID,1008.98,VALID,0,INVALID,111.214,VALID,0,VALID,22.5056,VALID,337,VALID,0,
2014-04-10, 02:44:04,VALID,1008.94,VALID,0,INVALID,111.145,VALID,0,VALID,22.5251,VALID,337,VALID,0,
2014-04-10, 02:45:04,VALID,1008.88,VALID,0,INVALID,111.176,VALID,0,VALID,22.5251,VALID,337,VALID,0,
2014-04-10, 02:46:04,VALID,1008.86,VALID,0,INVALID,111.161,VALID,0,VALID,22.5251,VALID,337,VALID,0,
2014-04-10, 02:47:04,VALID,1008.85,VALID,0,INVALID,111.168,VALID,0,VALID,22.5056,VALID,337,VALID,0,
2014-04-10, 02:48:04,VALID,1008.85,VALID,0,INVALID,111.199,VALID,0,VALID,22.4861,VALID,337,VALID,0,
2014-04-10, 02:49:04,VALID,1008.84,VALID,0,INVALID,111.222,VALID,0,VALID,22.4667,VALID,337,VALID,0,
2014-04-10, 02:50:04,VALID,1008.84,VALID,0,INVALID,111.176,VALID,0,VALID,22.4472,VALID,337,VALID,0,
2014-04-10, 02:51:04,VALID,1008.87,VALID,0,INVALID,111.176,VALID,0,VALID,22.4472,VALID,337,VALID,0,
2014-04-10, 02:52:04,VALID,1008.86,VALID,0,INVALID,111.153,VALID,0.112112,VALID,22.4472,VALID,337,VALID,0,
2014-04-10, 02:53:04,VALID,1008.87,VALID,0,INVALID,111.107,VALID,0,VALID,22.4455,VALID,337,VALID,0,
2014-04-10, 02:54:04,VALID,1008.88,VALID,0,INVALID,111.13,VALID,0,VALID,22.4455,VALID,337,VALID,0,
2014-04-10, 02:55:04,VALID,1008.84,VALID,0,INVALID,111.054,VALID,0,VALID,22.4861,VALID,337,VALID,0,
2014-04-10, 02:56:04,VALID,1008.86,VALID,0,INVALID,111.054,VALID,0,VALID,22.4861,VALID,337,VALID,0,
2014-04-10, 02:57:04,VALID,1008.82,VALID,0,INVALID,111.092,VALID,0,VALID,22.4667,VALID,337,VALID,0,
2014-04-10, 02:58:04,VALID,1008.79,VALID,0,INVALID,111.092,VALID,0,VALID,22.4667,VALID,337,VALID,0,
2014-04-10, 02:59:04,VALID,1008.81,VALID,0,INVALID,111.107,VALID,0,VALID,22.4472,VALID,337,VALID,0,
2014-04-10, 03:00:04,VALID,1008.84,VALID,0,INVALID,111.1,VALID,0,VALID,22.4455,VALID,337,VALID,0,
2014-04-10, 03:01:04,VALID,1008.89,VALID,0,INVALID,111.153,VALID,0.112112,VALID,22.4472,VALID,337,VALID,0,
2014-04-10, 03:02:04,VALID,1008.89,VALID,0,INVALID,111.092,VALID,0,VALID,22.426,VALID,337,VALID,0,
2014-04-10, 03:03:04,VALID,1008.89,VALID,0,INVALID,111.077,VALID,0,VALID,22.4472,VALID,337,VALID,0,
2014-04-10, 03:04:04,VALID,1008.87,VALID,0,INVALID,111.084,VALID,0,VALID,22.4472,VALID,337,VALID,0,
2014-04-10, 03:05:04,VALID,1008.86,VALID,0,INVALID,111.031,VALID,0,VALID,22.4472,VALID,337,VALID,0,
2014-04-10, 03:06:04,VALID,1008.86,VALID,0,INVALID,111.107,VALID,0,VALID,22.426,VALID,337,VALID,0,
2014-04-10, 03:07:04,VALID,1008.86,VALID,0,INVALID,111.092,VALID,0,VALID,22.387,VALID,337,VALID,0,
2014-04-10, 03:08:04,VALID,1008.86,VALID,0,INVALID,111.115,VALID,0,VALID,22.3887,VALID,337,VALID,0,
2014-04-10, 03:09:04,VALID,1008.92,VALID,0,INVALID,111.115,VALID,0,VALID,22.3693,VALID,337,VALID,0,
2014-04-10, 03:10:04,VALID,1008.92,VALID,0,INVALID,111.153,VALID,0,VALID,22.3498,VALID,337,VALID,0,
2014-04-10, 03:11:04,VALID,1008.97,VALID,0,INVALID,111.183,VALID,0,VALID,22.3303,VALID,337,VALID,0,
2014-04-10, 03:12:04,VALID,1008.97,VALID,0,INVALID,111.054,VALID,0,VALID,22.3693,VALID,337,VALID,0,
2014-04-10, 03:13:04,VALID,1008.99,VALID,0,INVALID,111.046,VALID,0,VALID,22.4294,VALID,337,VALID,0,
2014-04-10, 03:14:04,VALID,1009.01,VALID,0,INVALID,110.985,VALID,0,VALID,22.4277,VALID,337,VALID,0,
2014-04-10, 03:15:04,VALID,1008.99,VALID,0,INVALID,111.008,VALID,0,VALID,22.4472,VALID,337,VALID,0,
2014-04-10, 03:16:04,VALID,1009.02,VALID,0,INVALID,110.97,VALID,0.112112,VALID,22.4667,VALID,337,VALID,0,
2014-04-10, 03:17:04,VALID,1009,VALID,0,INVALID,110.993,VALID,0,VALID,22.4455,VALID,337,VALID,0,
2014-04-10, 03:18:04,VALID,1008.97,VALID,0,INVALID,110.97,VALID,0,VALID,22.4667,VALID,337,VALID,0,
2014-04-10, 03:19:04,VALID,1008.96,VALID,0,INVALID,110.947,VALID,0,VALID,22.4667,VALID,337,VALID,0,
2014-04-10, 03:20:04,VALID,1008.93,VALID,0,INVALID,110.947,VALID,0,VALID,22.4472,VALID,337,VALID,0,
2014-04-10, 03:21:04,VALID,1008.94,VALID,0,INVALID,110.962,VALID,0,VALID,22.4065,VALID,337,VALID,0,
2014-04-10, 03:22:04,VALID,1008.95,VALID,0,INVALID,110.978,VALID,0,VALID,22.4277,VALID,337,VALID,0,
2014-04-10, 03:23:04,VALID,1008.92,VALID,0,INVALID,111.069,VALID,0,VALID,22.3887,VALID,337,VALID,0,
2014-04-10, 03:24:04,VALID,1008.92,VALID,0,INVALID,111.107,VALID,0,VALID,22.3498,VALID,337,VALID,0,
2014-04-10, 03:25:04,VALID,1008.92,VALID,0,INVALID,111.077,VALID,0,VALID,22.3303,VALID,337,VALID,0,
2014-04-10, 03:26:04,VALID,1008.91,VALID,0,INVALID,111.115,VALID,0,VALID,22.2914,VALID,337,VALID,0,
2014-04-10, 03:27:04,VALID,1008.9,VALID,0,INVALID,111.145,VALID,0,VALID,22.2524,VALID,337,VALID,0,
2014-04-10, 03:28:04,VALID,1008.91,VALID,0,INVALID,111.13,VALID,0,VALID,22.2329,VALID,337,VALID,0,
2014-04-10, 03:29:04,VALID,1008.9,VALID,0,INVALID,111.191,VALID,0,VALID,22.2134,VALID,337,VALID,0,
2014-04-10, 03:30:04,VALID,1008.87,VALID,0,INVALID,111.161,VALID,0,VALID,22.2134,VALID,337,VALID,0,
2014-04-10, 03:31:04,VALID,1008.88,VALID,0,INVALID,111.138,VALID,0,VALID,22.1745,VALID,337,VALID,0,
2014-04-10, 03:32:04,VALID,1008.89,VALID,0,INVALID,111.161,VALID,0,VALID,22.1745,VALID,337,VALID,0,
2014-04-10, 03:33:04,VALID,1008.91,VALID,0,INVALID,111.222,VALID,0,VALID,22.155,VALID,337,VALID,0,
2014-04-10, 03:34:04,VALID,1008.92,VALID,0,INVALID,111.176,VALID,0,VALID,22.1355,VALID,337,VALID,0,
2014-04-10, 03:35:04,VALID,1008.94,VALID,0,INVALID,111.084,VALID,0,VALID,22.1745,VALID,337,VALID,0,
2014-04-10, 03:36:04,VALID,1008.94,VALID,0,INVALID,111.046,VALID,0,VALID,22.1923,VALID,337,VALID,0,
2014-04-10, 03:37:04,VALID,1008.93,VALID,0,INVALID,111.016,VALID,0,VALID,22.2329,VALID,337,VALID,0,
2014-04-10, 03:38:04,VALID,1008.94,VALID,0,INVALID,110.962,VALID,0,VALID,22.293,VALID,337,VALID,0,
2014-04-10, 03:39:04,VALID,1008.95,VALID,0,INVALID,110.932,VALID,0,VALID,22.2914,VALID,337,VALID,0,
2014-04-10, 03:40:04,VALID,1008.94,VALID,0,INVALID,111.008,VALID,0,VALID,22.2914,VALID,336,VALID,0,
2014-04-10, 03:41:04,VALID,1008.96,VALID,0,INVALID,111,VALID,0,VALID,22.2507,VALID,336,VALID,0,
2014-04-10, 03:42:04,VALID,1008.97,VALID,0,INVALID,110.985,VALID,0,VALID,22.2524,VALID,336,VALID,0,
2014-04-10, 03:43:04,VALID,1009,VALID,0,INVALID,111.039,VALID,0,VALID,22.2118,VALID,337,VALID,0,
2014-04-10, 03:44:04,VALID,1009.02,VALID,0,INVALID,110.97,VALID,0,VALID,22.2524,VALID,337,VALID,0,
2014-04-10, 03:45:04,VALID,1009.05,VALID,0,INVALID,110.947,VALID,0,VALID,22.2719,VALID,337,VALID,0,
2014-04-10, 03:46:04,VALID,1009.05,VALID,0,INVALID,110.993,VALID,0.112112,VALID,22.2524,VALID,337,VALID,0,
2014-04-10, 03:47:04,VALID,1009.05,VALID,0,INVALID,111.046,VALID,0,VALID,22.194,VALID,336,VALID,0,
2014-04-10, 03:48:04,VALID,1009.04,VALID,0,INVALID,111.031,VALID,0.112112,VALID,22.2134,VALID,337,VALID,0,
2014-04-10, 03:49:04,VALID,1009.01,VALID,0,INVALID,110.955,VALID,0,VALID,22.2134,VALID,337,VALID,0,
2014-04-10, 03:50:04,VALID,1009.03,VALID,0,INVALID,110.947,VALID,0,VALID,22.2134,VALID,337,VALID,0,
2014-04-10, 03:51:04,VALID,1009.05,VALID,0,INVALID,110.978,VALID,0,VALID,22.2134,VALID,337,VALID,0,
2014-04-10, 03:52:04,VALID,1009.03,VALID,0,INVALID,110.962,VALID,0,VALID,22.2134,VALID,337,VALID,0,
2014-04-10, 03:53:04,VALID,1009.09,VALID,0,INVALID,110.962,VALID,0.112112,VALID,22.194,VALID,337,VALID,0,
2014-04-10, 03:54:04,VALID,1009.09,VALID,0,INVALID,111,VALID,0,VALID,22.155,VALID,337,VALID,0,